When you browse on this site, cookies collect data to enhance your experience and personalize the content and advertising you see.
Visit our Privacy Policy to learn more. By continuing to use the site, you agree to this use of cookies and data.
  • In United Kingdom
  • List of Countries
  • For 7 days
  • Water Temperature
  • Weather Map
  • Weather Widgets
  • user-avatar
    Login

    Hourly Weather Cuiaba

    Today, 29 March, Sunday

    Time Temperature Precipitation Wind Pressure Humidity
    00:00 +25°C° 0 mm 1 mps 739 mmHg 92%
    01:00 +25°C° 0 mm 1 mps 739 mmHg 93%
    02:00 +25°C° 0 mm 1 mps 739 mmHg 93%
    03:00 +25°C° 0 mm 1 mps 739 mmHg 93%
    04:00 +25°C° 0 mm 1 mps 740 mmHg 93%
    05:00 +25°C° 0 mm 1 mps 740 mmHg 93%
    06:00 +26°C° 0 mm 1 mps 740 mmHg 90%
    07:00 +27°C° 0 mm 2 mps 741 mmHg 86%
    08:00 +28°C° 0 mm 2 mps 742 mmHg 83%
    09:00 +29°C° 1.2 mm 2 mps 742 mmHg 80%
    10:00 +30°C° 1.2 mm 3 mps 742 mmHg 78%
    11:00 +31°C° 1.2 mm 3 mps 742 mmHg 75%
    12:00 +31°C° 2 mm 3 mps 741 mmHg 75%
    13:00 +31°C° 2 mm 2 mps 740 mmHg 75%
    14:00 +31°C° 2 mm 2 mps 739 mmHg 75%
    15:00 +31°C° 0.9 mm 1 mps 739 mmHg 78%
    16:00 +30°C° 0.9 mm 1 mps 739 mmHg 80%
    17:00 +30°C° 0.9 mm 1 mps 739 mmHg 83%
    18:00 +29°C° 0.1 mm 1 mps 739 mmHg 85%
    19:00 +28°C° 0.1 mm 1 mps 740 mmHg 86%
    20:00 +27°C° 0.1 mm 1 mps 740 mmHg 88%
    21:00 +26°C° 0 mm 1 mps 740 mmHg 89%
    22:00 +26°C° 0 mm 1 mps 741 mmHg 89%
    23:00 +26°C° 0 mm 1 mps 741 mmHg 90%

    Tomorrow, 30 March, Monday

    Time Temperature Precipitation Wind Pressure Humidity
    00:00 +26°C° 0 mm 1 mps 741 mmHg 90%
    01:00 +24°C° 0 mm 0 mps 740 mmHg 90%
    02:00 +24°C° 0 mm 0 mps 740 mmHg 90%
    03:00 +24°C° 0 mm 0 mps 740 mmHg 91%
    04:00 +26°C° 0 mm 1 mps 740 mmHg 91%
    05:00 +26°C° 0 mm 1 mps 740 mmHg 91%
    06:00 +27°C° 0 mm 1 mps 740 mmHg 89%
    07:00 +28°C° 0 mm 1 mps 741 mmHg 86%
    08:00 +29°C° 0 mm 1 mps 741 mmHg 83%
    09:00 +30°C° 0 mm 1 mps 741 mmHg 76%
    10:00 +31°C° 0 mm 2 mps 741 mmHg 70%
    11:00 +34°C° 0 mm 2 mps 741 mmHg 63%
    12:00 +34°C° 0 mm 2 mps 740 mmHg 62%
    13:00 +33°C° 0 mm 1 mps 739 mmHg 60%
    14:00 +34°C° 0 mm 1 mps 738 mmHg 59%
    15:00 +33°C° 0 mm 1 mps 738 mmHg 63%
    16:00 +32°C° 0 mm 1 mps 738 mmHg 68%
    17:00 +32°C° 0 mm 1 mps 738 mmHg 73%
    18:00 +30°C° 0 mm 1 mps 738 mmHg 75%
    19:00 +29°C° 0 mm 1 mps 738 mmHg 78%
    20:00 +28°C° 0 mm 1 mps 738 mmHg 80%
    21:00 +27°C° 0 mm 1 mps 739 mmHg 82%
    22:00 +25°C° 0 mm 0 mps 739 mmHg 84%
    23:00 +25°C° 0 mm 0 mps 739 mmHg 86%

    Day after tomorrow, 31 March, Tuesday

    Time Temperature Precipitation Wind Pressure Humidity
    00:00 +24°C° 0.5 mm 0 mps 739 mmHg 87%
    01:00 +24°C° 0.5 mm 0 mps 739 mmHg 88%
    02:00 +24°C° 0.5 mm 0 mps 739 mmHg 89%
    03:00 +25°C° 0.2 mm 1 mps 739 mmHg 90%
    04:00 +25°C° 0.2 mm 1 mps 739 mmHg 90%
    05:00 +25°C° 0.2 mm 1 mps 739 mmHg 91%
    06:00 +26°C° 0 mm 1 mps 739 mmHg 88%
    07:00 +27°C° 0 mm 1 mps 740 mmHg 85%
    08:00 +29°C° 0 mm 1 mps 740 mmHg 82%
    09:00 +30°C° 0 mm 1 mps 740 mmHg 75%
    10:00 +32°C° 0 mm 1 mps 740 mmHg 67%
    11:00 +34°C° 0 mm 1 mps 740 mmHg 60%
    12:00 +34°C° 0 mm 1 mps 739 mmHg 58%
    13:00 +34°C° 0 mm 1 mps 738 mmHg 57%
    14:00 +35°C° 0 mm 1 mps 737 mmHg 55%
    15:00 +34°C° 0 mm 1 mps 737 mmHg 59%
    16:00 +33°C° 0 mm 1 mps 737 mmHg 64%
    17:00 +32°C° 0 mm 1 mps 736 mmHg 68%
    18:00 +31°C° 0 mm 1 mps 737 mmHg 70%
    19:00 +29°C° 0 mm 1 mps 737 mmHg 73%
    20:00 +28°C° 0 mm 1 mps 738 mmHg 75%
    21:00 +28°C° 0 mm 1 mps 738 mmHg 76%
    22:00 +27°C° 0 mm 1 mps 738 mmHg 78%
    23:00 +27°C° 0 mm 1 mps 738 mmHg 80%

    1 April, Wednesday

    Time Temperature Precipitation Wind Pressure Humidity
    00:00 +26°C° 0 mm 1 mps 738 mmHg 81%
    01:00 +24°C° 0 mm 0 mps 738 mmHg 82%
    02:00 +24°C° 0 mm 0 mps 738 mmHg 83%
    03:00 +23°C° 0 mm 0 mps 738 mmHg 83%
    04:00 +25°C° 0 mm 1 mps 738 mmHg 84%
    05:00 +25°C° 0 mm 1 mps 738 mmHg 85%
    06:00 +26°C° 0 mm 1 mps 739 mmHg 82%
    07:00 +27°C° 0 mm 1 mps 739 mmHg 79%
    08:00 +29°C° 0 mm 1 mps 740 mmHg 76%
    09:00 +31°C° 0 mm 1 mps 740 mmHg 70%
    10:00 +32°C° 0 mm 1 mps 740 mmHg 64%
    11:00 +34°C° 0 mm 1 mps 740 mmHg 58%
    12:00 +34°C° 0 mm 1 mps 739 mmHg 57%
    13:00 +35°C° 0 mm 1 mps 738 mmHg 55%
    14:00 +35°C° 0 mm 1 mps 737 mmHg 54%
    15:00 +32°C° 0 mm 0 mps 737 mmHg 58%
    16:00 +31°C° 0 mm 0 mps 737 mmHg 62%
    17:00 +30°C° 0 mm 0 mps 737 mmHg 66%
    18:00 +29°C° 0 mm 0 mps 737 mmHg 68%
    19:00 +29°C° 0 mm 1 mps 738 mmHg 70%
    20:00 +28°C° 0 mm 1 mps 738 mmHg 72%
    21:00 +27°C° 0 mm 1 mps 738 mmHg 73%
    22:00 +27°C° 0 mm 1 mps 738 mmHg 75%
    23:00 +26°C° 0 mm 1 mps 739 mmHg 76%

    2 April, Thursday

    Time Temperature Precipitation Wind Pressure Humidity
    00:00 +26°C° 0 mm 1 mps 739 mmHg 77%
    01:00 +26°C° 0 mm 1 mps 739 mmHg 79%
    02:00 +25°C° 0 mm 1 mps 738 mmHg 80%
    03:00 +25°C° 0 mm 1 mps 739 mmHg 81%
    04:00 +25°C° 0 mm 1 mps 739 mmHg 83%
    05:00 +24°C° 0 mm 1 mps 739 mmHg 84%
    06:00 +26°C° 0 mm 1 mps 740 mmHg 81%
    07:00 +27°C° 0 mm 2 mps 740 mmHg 78%
    08:00 +29°C° 0 mm 2 mps 741 mmHg 75%
    09:00 +30°C° 0 mm 2 mps 741 mmHg 71%
    10:00 +33°C° 0 mm 3 mps 741 mmHg 66%
    11:00 +35°C° 0 mm 3 mps 741 mmHg 62%
    12:00 +35°C° 0 mm 2 mps 740 mmHg 61%
    13:00 +35°C° 0 mm 2 mps 739 mmHg 59%
    14:00 +34°C° 0 mm 1 mps 738 mmHg 58%
    15:00 +34°C° 0.1 mm 1 mps 738 mmHg 62%
    16:00 +33°C° 0.1 mm 1 mps 738 mmHg 67%
    17:00 +30°C° 0.1 mm 0 mps 738 mmHg 71%
    18:00 +29°C° 0 mm 0 mps 738 mmHg 75%
    19:00 +29°C° 0 mm 1 mps 739 mmHg 78%
    20:00 +28°C° 0 mm 1 mps 739 mmHg 82%
    21:00 +28°C° 0 mm 1 mps 739 mmHg 82%
    22:00 +27°C° 0 mm 1 mps 740 mmHg 82%
    23:00 +27°C° 0 mm 1 mps 740 mmHg 83%

    3 April, Friday

    Time Temperature Precipitation Wind Pressure Humidity
    00:00 +27°C° 0 mm 1 mps 740 mmHg 84%
    01:00 +26°C° 0 mm 1 mps 739 mmHg 85%
    02:00 +26°C° 0 mm 1 mps 739 mmHg 86%
    03:00 +26°C° 0 mm 1 mps 739 mmHg 87%
    04:00 +26°C° 0 mm 1 mps 739 mmHg 88%
    05:00 +25°C° 0 mm 1 mps 739 mmHg 89%
    06:00 +27°C° 0 mm 1 mps 739 mmHg 85%
    07:00 +28°C° 0 mm 1 mps 740 mmHg 81%
    08:00 +29°C° 0 mm 1 mps 740 mmHg 77%
    09:00 +31°C° 0.1 mm 1 mps 740 mmHg 70%
    10:00 +33°C° 0.1 mm 1 mps 740 mmHg 64%
    11:00 +35°C° 0.1 mm 1 mps 740 mmHg 57%
    12:00 +34°C° 0.1 mm 1 mps 739 mmHg 57%
    13:00 +35°C° 0.1 mm 2 mps 738 mmHg 57%
    14:00 +35°C° 0.1 mm 2 mps 737 mmHg 57%
    15:00 +34°C° 0.2 mm 2 mps 737 mmHg 63%
    16:00 +32°C° 0.2 mm 2 mps 737 mmHg 70%
    17:00 +31°C° 0.2 mm 2 mps 737 mmHg 76%
    18:00 +29°C° 0.4 mm 1 mps 738 mmHg 80%
    19:00 +28°C° 0.4 mm 1 mps 738 mmHg 84%
    20:00 +27°C° 0.4 mm 1 mps 739 mmHg 88%
    21:00 +26°C° 0 mm 1 mps 739 mmHg 90%
    22:00 +26°C° 0 mm 1 mps 739 mmHg 91%
    23:00 +26°C° 0 mm 1 mps 739 mmHg 93%
    Show more